Temp
12 12 11 11 11 11 11 10 10 10 10 10 10 10 10 10 10 10 10 10 9 9 9 9 9 8 8 8 8 8 8 8 8 8 8 8 8 8 8 8 7 7 7 7 7 7 7 7 7 7 7 7 7 7 8 8 7 7 7 7 7 7 7 7 7 7 7 7 7
11 11 11 11 11 11 11 11 10 10 10 10 10 10 10 10 10 10 9 9 9 9 9 9 8 8 8 8 8 8 8 8 8 8 8 8 8 8 8 7 7 7 7 7 7 7 7 7 6 6 7 7 7 7 7 7 7 7 7 7 7 7 7 6 6 7 7 7 7
11 11 11 11 11 11 11 11 11 10 10 10 10 9 9 9 9 9 9 9 9 9 8 8 8 8 8 8 8 8 8 8 8 8 8 8 8 8 7 7 7 7 7 7 7 6 6 6 6 6 6 7 7 7 7 7 7 7 7 7 6 6 6 6 6 6 6 6 6
11 11 11 11 11 11 11 11 10 10 10 9 9 9 9 9 9 9 9 9 9 8 8 8 8 7 7 7 7 8 8 7 7 7 7 7 7 7 7 7 7 7 7 7 6 6 6 6 6 6 6 6 7 7 7 7 6 6 6 6 6 6 6 6 6 6 6 6 6
10 10 10 10 10 10 10 10 10 10 9 9 9 9 9 9 9 9 9 9 8 8 8 7 7 7 7 7 7 7 7 7 7 7 7 7 7 7 7 7 7 7 6 6 6 6 6 6 6 6 6 6 6 6 6 6 6 6 6 6 6 5 6 6 6 6 6 6 6
10 10 10 10 10 10 10 9 9 9 9 9 9 9 9 9 9 9 9 9 8 8 8 7 7 7 7 7 7 7 7 7 7 7 7 7 7 7 7 7 6 6 6 6 6 6 6 6 6 6 6 6 6 6 6 6 6 6 5 5 5 5 5 5 5 5 5 5 5
9 9 9 9 9 9 9 9 9 9 9 9 9 9 9 8 8 8 8 8 8 8 7 7 7 7 7 7 7 7 7 6 6 7 7 7 7 6 6 6 6 6 6 6 6 6 6 6 6 6 6 6 6 6 6 5 5 5 5 5 5 5 5 5 5 5 5 5 5
9 9 9 9 9 9 9 9 9 9 9 9 8 8 8 8 8 8 8 8 8 7 7 7 7 7 6 6 6 6 6 6 6 6 6 6 6 6 6 6 6 6 6 6 6 6 5 5 5 5 5 5 5 5 5 5 5 5 5 5 5 5 5 5 5 5 5 5 5
9 9 9 9 9 9 9 8 9 9 9 8 8 8 8 8 8 8 8 7 7 7 7 7 7 6 6 6 6 6 6 6 6 6 6 6 6 6 6 6 6 6 6 5 5 5 5 5 5 5 5 5 5 5 5 5 5 5 5 5 5 5 5 5 5 5 5 5 5
8 8 8 8 8 8 8 8 8 8 8 8 8 8 8 7 7 7 7 7 7 7 7 6 6 6 6 6 6 6 6 6 6 6 6 6 6 6 6 6 5 5 5 5 5 5 5 5 5 5 5 5 5 5 5 5 4 4 4 4 4 4 4 4 4 5 5 5 5
8 8 8 8 8 8 8 8 8 8 8 8 8 8 7 7 7 7 7 7 7 7 7 6 6 6 6 6 6 5 5 5 5 5 5 6 6 6 6 5 5 5 5 5 5 5 5 5 5 4 4 4 4 4 4 4 4 4 4 4 4 4 4 4 4 5 5 5 5
8 8 8 8 8 8 8 8 8 8 7 7 7 7 7 7 7 7 7 7 7 7 6 6 6 6 6 5 5 5 5 5 5 5 5 5 5 5 5 5 5 5 5 5 5 4 4 4 4 4 4 4 4 4 4 4 4 4 4 4 4 4 4 4 4 5 5 5 5
8 8 8 8 8 8 8 8 7 7 7 7 7 7 7 7 7 7 6 7 6 6 6 6 6 5 5 5 5 5 5 5 5 5 5 5 5 5 5 5 5 5 5 5 4 4 4 4 4 4 4 4 4 4 4 4 4 4 4 4 4 4 4 4 4 5 5 5 4
8 8 7 7 7 7 7 7 7 7 7 7 7 7 7 7 7 6 6 6 6 6 6 6 5 5 5 5 5 5 5 5 5 5 5 5 5 5 5 5 5 5 4 4 4 4 4 4 4 4 4 4 4 4 4 4 4 4 4 4 4 4 4 4 4 4 4 4 4
8 7 7 7 7 7 7 7 7 7 7 7 7 6 6 6 6 6 6 6 6 6 6 5 5 5 5 5 5 5 5 5 5 5 5 5 5 5 5 5 5 4 4 4 4 4 4 4 4 4 4 4 4 4 4 4 4 4 4 4 4 4 4 4 4 4 4 4 4
7 7 7 7 7 7 7 7 7 7 7 7 6 6 6 6 6 6 6 6 5 5 5 5 5 5 5 5 5 5 5 5 5 5 5 5 5 5 5 4 4 4 4 4 4 4 4 4 4 4 4 4 3 3 3 3 3 3 4 4 4 4 4 4 4 4 4 4 4
7 7 7 7 6 6 6 6 6 6 6 6 6 6 6 6 6 6 5 5 5 5 5 5 5 5 5 5 5 4 4 4 4 5 5 5 5 4 4 4 4 4 4 4 4 4 4 4 4 4 4 3 3 3 3 3 3 3 3 3 3 4 4 4 4 4 4 4 4
7 7 6 6 6 6 6 6 6 6 6 5 5 6 6 6 5 5 5 5 5 5 5 5 5 4 4 4 4 4 4 4 4 4 4 4 4 4 4 4 4 4 4 4 4 4 4 4 4 3 3 3 3 3 3 3 3 3 3 3 3 3 3 3 3 3 3 3 3
7 6 6 6 6 6 6 5 5 5 5 5 5 5 5 5 5 5 5 5 5 5 4 4 4 4 4 4 4 4 4 4 4 4 4 4 4 4 4 4 4 4 4 4 4 3 4 4 3 3 3 3 3 2 2 2 3 3 3 3 3 3 3 3 3 3 3 3 3
6 6 6 6 6 5 5 5 5 5 5 5 5 5 5 5 5 5 5 5 4 4 4 4 4 4 4 4 4 4 4 4 4 4 4 4 4 4 4 4 4 4 3 3 3 3 3 3 3 3 3 2 2 2 2 2 2 2 2 2 3 3 3 3 3 3 3 3 3
6 5 5 6 5 5 5 5 5 5 5 5 5 5 5 5 5 5 4 4 4 4 4 4 4 4 4 4 4 4 4 4 4 4 4 4 4 4 4 4 4 3 3 3 3 3 3 3 3 2 2 2 2 2 2 2 2 2 2 2 2 2 2 2 2 2 2 2 2
5 5 6 6 5 5 5 5 5 5 5 5 5 5 5 5 4 4 4 4 4 4 4 4 4 4 4 4 4 4 4 4 4 4 4 4 4 4 4 3 3 3 3 3 3 3 3 3 2 2 2 2 2 2 2 2 2 2 2 2 2 2 2 2 2 2 2 2 2
5 5 5 5 5 5 4 5 5 5 5 5 5 5 4 4 4 4 4 4 4 4 4 4 4 4 4 4 4 4 4 4 4 4 4 4 4 4 3 3 3 3 3 3 3 3 2 2 2 2 1 1 1 1 1 1 1 1 1 1 1 1 2 2 2 2 2 2 2
5 5 5 5 4 4 5 5 5 5 5 5 4 4 4 4 4 4 4 4 4 4 4 4 4 4 4 4 4 4 4 4 4 4 4 4 4 3 3 3 3 3 3 3 3 2 2 2 2 1 1 1 1 1 1 1 1 1 1 1 1 1 1 1 1 2 2 2 2
5 5 4 4 4 5 5 5 5 5 5 4 4 4 4 4 4 4 4 4 4 4 4 4 4 4 4 4 4 4 4 4 4 4 4 3 3 3 3 3 3 3 3 3 2 2 2 2 1 1 1 1 1 1 1 1 1 1 1 1 1 1 1 1 1 1 2 2 2
4 4 4 5 5 5 5 5 5 4 4 4 4 4 4 4 4 4 4 4 4 4 4 4 4 3 4 4 4 4 4 4 4 3 3 3 3 3 3 3 3 3 3 3 2 2 2 2 1 1 1 1 1 0 0 0 0 0 0 0 0 1 1 1 1 2 2 2 2
4 4 4 5 5 5 5 5 5 4 4 4 4 4 4 4 4 4 4 4 4 4 4 3 3 3 3 3 3 4 4 3 3 3 3 3 3 3 3 3 3 3 3 2 2 2 2 2 1 1 1 1 0 0 0 -0 -0 0 0 0 0 1 1 1 1 2 2 2 2
4 4 5 5 5 5 5 5 5 4 4 4 4 4 4 4 4 4 4 4 4 3 3 3 3 3 3 3 3 3 3 3 3 3 3 3 3 3 3 3 3 3 2 2 2 2 2 1 1 1 1 1 0 -0 -0 -0 -0 -0 0 0 0 1 1 1 1 1 1 1 1
4 5 5 5 5 5 5 5 5 4 4 4 4 4 4 4 4 4 4 4 3 3 3 3 3 3 3 3 3 3 3 3 3 3 3 3 3 3 3 3 3 2 2 2 2 2 2 1 1 1 1 0 0 -0 -0 -0 -0 -0 -0 0 0 1 1 1 1 1 1 1 1
4 5 5 5 5 5 5 5 4 4 4 4 4 4 4 4 3 3 3 3 3 3 3 3 3 3 3 3 3 3 3 3 3 3 3 3 3 3 3 2 2 2 2 2 2 2 1 1 1 1 0 0 -0 -0 -0 -1 -0 -0 -0 -0 0 0 1 1 1 1 1 1 1
4 4 4 5 5 5 4 4 4 4 4 4 4 4 3 3 3 3 3 3 3 3 3 3 3 3 3 3 3 3 3 3 3 3 3 3 3 2 2 2 2 2 2 2 2 2 1 1 1 1 0 -0 -0 -0 -1 -1 -1 -0 -0 -0 0 0 0 1 1 0 0 0 1
4 4 4 4 4 4 4 4 4 4 4 4 3 3 3 3 3 3 3 3 3 3 3 3 3 3 3 3 3 3 3 3 3 3 3 3 2 2 2 2 2 2 2 2 2 1 1 1 1 0 0 -0 -0 -1 -1 -1 -1 -0 -0 -0 0 0 0 0 0 0 0 0 0
4 4 4 4 4 4 4 4 4 4 3 3 3 3 3 3 3 3 3 3 3 3 3 3 3 3 3 3 3 3 3 3 3 3 3 2 2 2 2 2 2 2 2 2 1 1 1 1 0 0 -0 -0 -1 -1 -1 -1 -1 -0 -0 -0 -0 -0 -0 -0 -0 -0 -0 0 0
4 4 4 4 4 4 4 4 4 3 3 3 3 3 3 3 3 3 3 3 3 3 3 3 3 3 3 3 3 3 3 3 3 2 2 2 2 2 2 2 2 2 2 1 1 1 1 0 0 -0 -0 -1 -1 -1 -1 -1 -1 -1 -0 -0 -0 -1 -0 -0 -0 -0 -0 -0 0
4 4 4 4 4 4 4 3 3 3 3 3 3 3 3 3 3 2 2 2 2 2 2 2 3 3 3 3 3 3 3 3 2 2 2 2 2 2 2 2 2 2 1 1 1 1 1 0 -0 -0 -0 -1 -1 -1 -1 -1 -1 -1 -1 -1 -1 -1 -1 -1 -1 -0 -0 -0 0
4 4 4 4 4 3 3 3 3 3 3 3 3 3 2 2 2 2 2 2 2 2 2 2 3 3 3 3 3 3 2 2 2 2 2 2 2 2 2 2 2 1 1 1 1 1 0 0 -0 -0 -0 -1 -1 -1 -1 -1 -1 -1 -1 -1 -1 -1 -1 -1 -1 -0 -0 -0 -0
4 4 3 3 3 3 3 3 3 3 3 3 3 2 2 2 2 2 2 2 2 2 2 2 2 2 2 2 2 2 2 2 2 2 2 2 2 2 2 1 1 1 1 1 1 0 0 0 -0 -0 -0 -1 -1 -1 -1 -1 -1 -1 -1 -1 -1 -1 -1 -1 -1 -0 -0 -0 -0
3 3 3 3 3 3 3 3 2 2 2 2 2 2 2 2 2 2 2 2 2 2 2 2 2 2 2 2 2 2 2 2 2 2 2 2 2 1 1 1 1 1 1 1 0 0 0 0 -0 -0 -0 -1 -1 -1 -1 -1 -1 -1 -1 -1 -1 -1 -1 -1 -1 -0 -0 -0 -1
3 3 3 3 2 2 2 2 2 2 2 2 2 2 2 2 2 2 2 2 2 2 2 2 2 2 2 2 2 2 2 2 2 2 1 1 1 1 1 1 1 1 1 1 0 0 0 0 -0 -0 -0 -1 -1 -1 -1 -1 -1 -1 -2 -1 -1 -1 -1 -1 -1 -1 -1 -1 -1
3 3 2 2 2 2 2 2 2 2 2 2 2 1 1 1 2 2 2 2 2 2 2 2 2 2 2 2 2 2 2 1 1 1 1 1 1 1 1 1 1 1 1 1 0 0 0 0 -0 -0 -0 -1 -1 -1 -1 -1 -1 -2 -2 -1 -1 -1 -1 -1 -1 -1 -1 -1 -1
3 2 2 2 2 2 2 2 2 2 2 1 1 1 1 1 1 2 2 2 2 2 2 2 2 2 2 2 2 1 1 1 1 1 1 1 1 1 1 1 1 1 1 1 1 0 0 0 -0 -0 -0 -1 -1 -1 -1 -1 -2 -2 -1 -1 -1 -1 -1 -1 -1 -1 -1 -1 -1
Height
779 779 780 780 781 781 782 782 782 783 783 783 783 783 783 783 783 783 783 783 783 783 783 782 782 782 781 781 780 780 779 779 779 778 778 777 777 776 775 774 774 773 773 772 771 770 769 768 767 766 765 764 763 762 761 760 759 759 757 756 755 754 753 751 750 749 748 746 745
779 780 780 780 781 781 782 782 782 783 783 783 783 783 783 783 783 783 783 783 783 782 782 782 782 781 781 780 780 779 779 779 778 778 777 777 776 776 775 774 774 773 772 771 770 770 769 768 767 766 765 764 763 762 761 760 759 758 757 755 754 753 752 750 749 748 746 745 744
780 780 780 781 781 782 782 782 783 783 783 783 783 783 783 783 783 783 783 783 782 782 782 782 781 781 780 780 780 779 779 779 778 778 777 777 776 775 775 774 773 773 772 771 770 769 768 767 766 765 764 763 762 761 760 759 758 757 756 754 754 752 751 749 748 747 745 744 743
781 781 781 781 781 782 782 782 782 783 783 783 783 783 783 783 783 782 782 782 782 782 782 782 781 780 780 780 779 779 779 779 778 777 777 776 776 775 774 774 773 772 771 771 770 769 768 767 766 765 764 762 761 760 759 758 757 756 755 754 753 751 750 749 747 746 744 743 742
781 781 781 781 782 782 782 782 782 782 783 783 783 783 783 783 782 782 782 782 782 782 782 781 781 780 780 780 779 779 779 778 778 777 776 776 775 774 774 773 773 772 771 770 769 768 767 766 765 764 763 762 761 759 759 757 756 755 754 753 752 750 749 748 746 745 744 742 741
782 782 782 782 782 782 782 782 782 782 782 782 783 783 783 783 783 782 782 782 782 782 781 781 781 780 780 779 779 779 778 778 777 777 776 775 775 774 774 773 772 771 770 769 769 768 767 766 764 763 762 761 760 759 758 757 756 754 753 752 751 749 748 747 745 744 743 741 739
782 782 782 782 782 782 782 782 782 782 782 782 783 783 783 783 782 782 782 782 782 781 781 780 780 780 780 779 779 778 778 777 777 776 776 775 774 774 773 772 772 771 770 769 768 767 766 765 764 763 761 760 759 758 757 756 755 754 752 751 749 749 747 745 744 743 741 740 738
782 782 782 782 782 782 782 782 782 782 782 782 782 782 782 782 782 782 782 782 781 781 780 780 780 779 779 779 779 778 778 777 776 776 775 775 774 773 773 772 771 770 769 769 768 766 765 764 763 762 761 759 758 757 756 755 754 753 751 750 748 747 746 744 743 741 740 739 737
783 783 782 782 782 782 782 782 782 782 782 782 782 782 782 782 782 782 782 782 781 781 780 780 779 779 779 779 778 778 777 777 776 775 775 774 774 773 772 771 770 769 769 768 767 766 765 764 762 761 760 759 757 756 755 754 753 751 750 749 747 745 744 743 742 740 739 737 735
783 783 783 783 783 783 782 782 782 782 782 782 782 782 782 782 782 782 782 781 781 781 780 779 779 779 779 778 778 777 777 776 776 775 774 774 773 773 772 771 770 769 768 767 766 765 764 763 762 760 759 758 757 755 754 753 752 750 749 747 746 744 743 742 740 739 737 735 734
783 783 783 783 783 783 783 783 783 783 783 782 782 782 782 782 782 782 781 781 781 781 780 779 779 779 778 778 777 777 776 776 775 775 774 774 773 772 771 770 769 769 768 766 765 764 763 762 760 759 758 757 756 754 753 752 750 749 747 746 744 743 741 740 739 737 735 734 732
784 783 783 783 783 783 783 783 783 783 783 782 782 782 782 782 781 781 781 781 781 781 780 779 779 778 778 777 777 777 776 775 775 774 774 773 772 772 771 770 769 768 767 766 764 764 762 761 759 758 757 756 754 753 752 750 749 748 746 744 743 742 740 738 737 735 734 732 731
784 784 783 783 783 783 783 783 783 783 783 782 782 782 782 781 781 781 781 781 781 780 779 779 778 778 778 777 777 776 776 775 774 774 773 773 772 771 770 769 768 767 766 765 764 763 761 760 759 757 756 754 753 752 751 749 748 746 745 743 741 740 738 737 735 734 732 731 729
784 784 784 784 783 783 783 783 783 783 783 783 782 782 781 781 781 781 781 781 780 780 779 779 778 778 777 777 776 776 775 775 774 774 773 772 771 770 769 769 768 766 765 764 763 762 760 759 758 756 755 753 752 751 749 748 747 745 744 742 740 738 737 735 734 732 730 729 727
784 784 784 784 783 783 783 783 783 783 783 782 782 781 781 781 780 780 780 780 780 779 779 779 778 777 777 776 776 775 775 774 774 773 772 772 771 770 769 768 767 765 764 763 762 761 759 758 757 755 754 752 751 749 748 747 745 744 742 741 739 737 735 734 732 730 729 727 726
784 784 784 784 784 783 783 783 783 783 783 782 782 781 781 780 780 780 780 780 779 779 779 778 778 777 776 776 776 775 774 774 773 773 772 771 770 769 768 767 766 764 764 762 761 759 759 757 756 754 753 751 750 749 747 746 744 743 741 739 738 736 734 732 731 729 728 726 724
784 784 784 784 784 783 783 783 783 783 782 782 782 781 780 780 780 779 779 779 779 779 778 778 777 777 776 776 775 774 774 773 773 772 771 770 769 768 767 766 765 764 762 761 760 759 757 756 755 754 752 750 749 747 746 744 743 741 739 738 736 734 733 731 729 728 726 724 723
784 784 784 784 784 783 783 783 783 783 782 782 781 781 780 780 779 779 779 779 779 778 778 777 777 776 776 775 774 774 773 773 772 771 770 769 769 767 766 765 764 763 761 760 759 757 756 755 754 752 751 749 748 746 745 743 741 739 738 736 734 733 731 729 728 726 725 723 721
784 784 784 784 783 783 783 783 783 783 782 782 781 780 780 779 779 779 779 778 778 778 777 777 776 776 775 775 774 774 773 772 771 770 769 769 768 766 765 764 763 762 760 759 758 756 755 754 752 751 750 748 747 745 744 742 740 738 736 734 733 731 729 728 727 725 724 722 720
784 784 784 783 783 783 783 783 783 782 782 782 781 780 780 779 779 779 778 778 778 777 777 776 776 775 774 774 773 773 772 771 770 769 769 768 767 765 764 763 762 761 759 758 757 755 754 753 751 750 749 747 745 744 742 740 739 737 735 733 731 730 728 727 725 724 722 721 719
784 784 783 783 783 783 783 782 782 782 782 781 781 780 779 779 779 778 778 778 777 777 776 776 775 774 774 773 773 772 771 770 769 769 768 767 765 764 763 762 761 759 758 757 755 754 753 752 750 749 747 746 744 742 741 739 737 735 733 732 730 728 727 725 724 722 720 719 718
784 783 783 783 782 782 782 782 782 782 781 781 780 780 779 779 778 778 777 777 776 776 775 775 774 774 773 772 772 771 770 769 769 768 767 766 764 764 762 761 760 758 757 756 754 753 752 750 749 748 746 744 743 741 739 738 735 734 731 730 728 727 725 724 722 720 719 718 716
783 783 783 782 782 782 782 782 782 781 781 781 780 780 779 779 778 777 777 776 776 775 775 774 774 773 772 772 771 770 769 768 768 767 766 765 764 762 761 760 759 757 756 754 753 752 751 749 748 747 745 744 741 739 738 736 734 732 730 728 726 725 723 722 720 719 717 716 714
783 782 782 782 782 782 782 782 781 781 781 780 780 779 779 778 778 777 776 776 775 775 774 774 773 772 771 771 770 769 769 768 766 765 764 764 763 761 760 759 758 756 755 754 752 751 750 749 747 745 744 742 740 739 737 735 733 731 729 727 725 723 722 720 719 717 716 714 713
782 782 782 782 782 782 781 781 781 781 780 780 779 779 778 778 777 776 776 775 775 774 774 773 772 771 771 770 769 769 768 767 766 764 763 762 761 760 759 758 756 755 754 752 751 750 749 748 746 745 743 741 739 737 735 734 732 730 728 726 724 722 720 718 717 716 714 713 711
782 782 782 782 782 781 781 781 780 780 780 779 779 779 778 777 776 776 775 775 774 774 773 772 771 771 770 769 768 768 767 766 765 764 762 761 760 759 758 757 755 754 752 751 750 749 748 747 745 744 742 740 738 736 734 732 730 729 727 725 723 721 719 717 715 714 713 711 710
782 782 782 782 781 781 781 780 780 779 779 779 778 778 777 777 776 775 775 774 774 773 772 771 771 770 769 768 768 767 766 765 764 763 761 760 759 758 756 755 754 752 751 750 749 748 746 745 744 743 741 739 738 735 733 731 729 727 725 724 722 720 718 716 714 712 711 710 709
782 782 782 781 781 781 780 780 779 779 779 778 778 777 777 776 775 775 774 774 773 772 771 771 770 769 769 768 767 766 764 764 763 761 760 759 758 756 755 754 753 751 750 749 747 746 745 744 742 741 740 739 737 734 732 730 728 726 724 722 721 719 717 715 713 712 710 709 708
782 781 781 781 781 780 779 779 779 779 778 778 777 777 776 775 775 774 774 773 772 772 771 770 769 769 768 767 765 764 764 763 761 760 759 758 756 755 754 753 751 750 749 747 746 745 744 742 741 740 739 737 736 734 731 729 727 725 723 721 719 718 716 714 713 711 709 708 707
781 781 781 780 780 779 779 779 778 778 777 777 776 776 775 775 774 774 773 772 772 771 770 769 769 768 767 766 764 764 762 761 760 759 758 756 755 754 752 751 750 748 747 746 744 743 742 741 739 738 737 736 734 733 730 729 726 724 722 720 719 717 715 714 712 710 709 708 706
781 781 780 780 779 779 779 778 778 777 777 776 776 775 775 774 774 773 772 772 771 770 769 769 768 767 766 765 764 763 761 760 759 758 756 755 754 752 751 750 748 747 745 744 743 742 741 739 738 737 736 734 733 731 729 727 725 724 721 719 718 716 714 713 711 710 709 707 705
780 780 780 779 779 778 778 777 777 776 776 776 775 775 774 774 773 773 772 771 770 769 769 768 767 766 764 764 762 761 760 759 758 756 755 754 752 751 749 748 747 745 744 743 742 741 739 738 737 735 734 733 731 730 728 726 724 722 720 719 717 715 714 712 711 709 708 706 704
780 779 779 779 778 778 777 777 776 776 775 775 775 774 774 773 772 772 771 770 769 769 768 767 766 764 764 762 761 760 759 758 756 755 754 752 751 749 748 747 745 744 743 742 740 739 738 737 735 734 733 731 730 729 727 725 723 721 719 718 716 714 713 712 710 708 707 705 704
779 779 779 778 778 777 776 776 776 775 775 774 774 774 773 772 772 771 770 769 769 768 767 766 765 764 762 761 760 759 757 756 755 754 752 751 749 748 747 745 744 743 741 740 739 738 737 735 734 733 732 730 729 727 725 724 722 720 718 717 715 714 712 711 709 708 706 704 702
779 779 778 777 777 776 776 775 775 775 774 774 774 773 772 772 771 770 769 768 768 767 765 764 764 763 761 760 759 758 756 755 754 752 751 750 748 747 745 744 742 741 740 739 738 736 735 734 733 732 730 729 728 726 724 722 720 719 717 716 714 713 711 709 708 706 704 703 701
778 778 777 777 776 776 775 775 774 774 774 773 773 772 772 771 770 769 768 767 766 765 764 763 762 761 760 759 758 757 755 754 752 751 750 749 747 745 744 742 741 739 739 738 736 735 734 733 731 730 729 728 726 725 723 721 719 718 716 715 713 711 710 708 707 705 703 702 700
778 777 777 776 776 775 775 774 774 774 773 773 772 771 771 770 769 768 767 766 765 764 763 762 761 760 759 758 756 755 754 753 751 750 748 747 746 744 742 740 739 738 737 736 735 734 733 731 730 729 728 727 725 724 722 720 719 717 715 714 712 710 709 707 705 704 702 700 699
777 776 776 775 775 775 774 774 774 773 773 772 771 771 770 769 768 767 766 766 764 763 762 761 760 759 758 756 755 754 753 752 750 749 747 745 744 743 741 739 737 736 736 734 733 732 731 730 729 728 727 726 724 722 721 719 718 716 714 713 711 709 707 706 704 702 700 699 698
776 776 775 775 775 774 774 774 773 773 772 771 770 770 769 768 767 766 765 765 764 763 761 760 759 758 756 755 754 753 751 750 749 748 746 744 743 742 740 738 736 735 734 733 732 731 730 729 728 727 726 725 723 722 720 719 717 715 713 712 709 707 706 704 703 701 699 697 696
775 775 775 774 774 774 774 773 773 772 771 771 770 769 768 767 766 765 764 764 763 762 760 759 758 757 755 754 753 751 750 749 748 746 745 743 741 740 739 737 735 734 733 732 731 730 729 728 727 726 725 724 722 721 719 718 716 714 712 710 709 706 704 703 701 699 698 696 694
775 775 774 774 774 774 773 773 772 771 770 770 769 768 767 766 765 764 764 763 762 761 759 758 757 756 754 754 752 750 749 747 746 744 743 742 740 739 737 736 734 732 731 731 730 729 728 727 726 725 724 723 722 720 719 717 715 713 711 709 708 705 703 701 699 698 696 694 693
Wind_Speed
10 9 9 8 8 7 7 7 7 6 5 5 4 4 4 4 4 4 4 4 4 4 4 4 5 6 7 7 8 8 8 9 9 9 9 9 9 9 10 10 11 11 11 12 12 12 12 13 13 12 12 12 12 12 12 13 13 14 14 15 16 16 17 17 17 18 18 18 18
10 9 9 8 7 7 6 6 6 5 5 5 4 4 4 4 4 4 4 4 4 4 4 4 5 6 7 8 8 8 9 9 9 9 9 9 9 10 10 10 11 11 11 12 12 12 12 13 13 13 12 12 12 12 13 13 13 14 15 16 16 16 17 17 17 17 18 18 18
9 8 8 7 6 6 6 5 5 5 5 5 4 4 4 4 4 3 4 4 4 4 4 5 6 7 7 8 8 8 9 9 9 10 9 9 10 10 10 11 11 11 12 12 12 12 13 13 13 13 12 12 13 13 13 13 14 15 16 16 16 16 16 16 17 17 17 17 17
8 8 8 7 7 6 6 5 5 5 5 4 4 4 4 4 4 3 3 3 4 4 5 5 7 8 8 8 8 8 9 9 9 10 10 10 10 10 11 11 12 12 12 12 12 13 13 14 13 13 13 13 13 13 14 14 15 15 16 16 16 16 16 17 17 17 17 18 18
8 7 7 7 7 7 6 6 5 5 4 4 3 3 3 4 3 3 3 3 4 4 5 6 7 7 8 8 8 9 9 9 9 9 10 10 10 11 11 12 12 12 12 13 13 13 14 14 13 13 13 13 13 13 14 15 16 16 16 16 16 16 17 17 18 18 18 18 19
7 7 7 7 7 6 6 6 6 5 5 4 4 3 3 3 3 3 3 3 4 4 6 7 7 7 8 8 8 9 9 9 9 10 10 10 11 11 12 12 12 13 13 13 13 14 14 14 14 13 13 13 13 14 14 15 16 17 17 17 17 17 17 18 18 18 19 19 20
7 7 7 7 7 6 6 6 5 5 5 4 4 4 4 4 4 4 4 3 4 4 6 7 7 7 8 8 8 9 9 9 10 10 10 10 11 11 12 12 13 13 13 14 14 14 14 14 14 14 13 13 14 14 15 15 16 17 18 18 18 18 18 19 19 19 19 20 21
7 7 7 7 7 7 6 6 5 4 4 4 4 4 4 4 4 4 4 4 4 5 6 7 7 8 8 8 9 9 10 10 10 10 10 11 11 12 12 13 13 13 14 14 14 15 15 15 14 14 14 14 14 15 16 17 18 18 19 20 19 19 19 19 20 20 21 22 23
6 6 6 6 7 7 6 6 5 4 4 4 4 3 4 4 4 4 4 4 5 5 5 6 8 8 8 8 9 9 10 10 11 11 11 11 12 12 13 13 14 14 14 15 15 15 15 15 14 14 14 15 16 17 17 18 19 19 20 20 20 20 20 20 21 22 22 23 23
5 5 5 5 5 5 5 5 5 4 4 3 3 3 3 4 5 4 5 5 5 5 5 6 8 8 8 8 9 9 10 10 11 11 11 12 12 13 13 13 14 14 15 15 15 15 15 15 15 15 16 16 17 18 19 19 19 20 21 21 21 21 22 22 22 23 23 23 24
4 4 4 4 4 4 4 3 3 3 3 3 3 3 3 4 4 5 5 6 5 4 5 7 8 8 8 9 9 10 10 10 11 11 12 12 13 13 13 14 14 15 15 16 16 15 15 15 16 16 17 18 18 19 19 20 20 21 21 22 22 23 23 24 23 23 23 24 24
4 4 4 4 4 3 3 2 2 3 3 3 3 3 3 3 4 5 6 5 5 5 6 8 8 8 8 9 9 10 10 11 11 12 12 13 13 13 14 15 15 15 16 16 16 16 16 16 17 18 19 19 19 19 19 20 21 22 22 23 23 23 24 24 24 24 24 24 25
4 4 4 4 4 3 2 2 2 2 2 3 3 3 3 3 4 5 6 5 6 6 7 8 8 8 8 9 10 10 11 11 11 12 12 13 13 14 15 15 15 16 16 16 16 16 17 17 18 19 19 20 19 19 20 21 22 22 23 24 24 24 24 25 25 25 25 26 26
3 3 3 3 3 2 2 1 1 2 2 2 3 3 3 3 4 5 6 6 6 7 7 7 8 8 9 9 10 10 11 11 12 12 13 13 14 14 15 15 16 16 16 17 17 17 17 18 18 19 20 20 20 21 21 22 22 23 23 24 24 25 25 26 26 26 26 27 27
3 3 3 2 2 2 2 1 1 1 2 2 3 4 3 3 4 5 7 7 7 7 7 8 8 9 9 9 10 10 11 11 12 13 13 14 14 15 15 16 16 17 17 17 18 18 18 19 19 19 20 20 21 22 22 22 22 23 23 24 25 26 26 26 27 27 27 27 27
2 2 2 2 2 2 2 2 2 2 2 2 3 4 4 3 4 6 7 7 7 7 8 8 9 9 10 10 10 10 11 11 12 13 13 14 15 15 16 16 17 17 18 18 19 19 19 19 19 19 20 20 21 22 22 23 23 24 24 25 25 26 26 27 27 27 27 27 27
1 1 1 1 2 2 2 2 2 2 2 3 4 4 4 4 5 6 7 8 8 8 8 9 9 10 10 10 10 10 11 12 12 13 13 14 15 16 17 17 18 18 18 19 19 20 20 19 19 19 20 20 21 22 23 23 24 24 25 25 26 26 27 27 27 27 27 27 28
1 1 1 1 1 1 2 2 2 3 3 4 4 5 5 6 6 7 7 8 8 9 9 10 10 10 10 10 11 11 11 12 13 13 14 15 16 16 17 18 18 18 19 19 20 20 20 20 20 20 20 21 22 22 23 23 24 25 25 26 26 26 27 27 27 27 27 27 28
1 1 1 1 1 1 2 3 3 4 4 4 5 5 6 7 7 7 7 8 8 9 10 10 10 10 11 11 11 12 12 13 13 14 15 15 16 17 17 18 18 19 19 20 20 20 20 20 20 20 21 22 22 23 23 24 25 25 25 26 26 26 27 27 27 27 27 27 28
1 2 2 2 1 2 2 3 4 4 5 5 5 6 6 7 7 7 8 8 9 10 10 10 11 11 11 12 12 13 13 13 14 15 15 16 17 17 18 18 19 19 20 20 20 20 20 19 20 20 21 22 23 24 24 25 25 25 26 26 26 26 27 27 27 27 27 27 27
2 2 3 2 2 2 3 4 4 5 5 5 6 6 7 7 7 7 8 9 9 10 10 10 11 11 12 13 13 14 14 14 14 15 16 16 17 18 18 19 19 20 20 20 20 19 19 19 20 20 21 22 23 24 24 25 25 26 26 26 26 27 27 27 27 27 27 27 27
3 4 3 3 3 3 4 4 5 5 5 6 6 7 7 7 7 8 8 9 10 10 10 10 11 12 13 13 14 15 15 15 15 15 16 17 17 18 18 19 19 20 20 20 19 19 19 19 20 21 22 23 23 24 24 25 26 26 27 27 27 27 27 27 27 27 27 27 26
4 4 4 4 4 4 4 5 5 5 6 6 6 7 7 7 8 8 9 9 10 10 10 11 12 13 13 14 15 15 16 16 16 16 17 17 18 19 19 19 19 20 20 19 19 18 18 19 20 21 22 23 24 24 25 25 26 26 27 27 27 28 28 27 27 27 27 26 25
4 4 4 4 4 4 5 5 5 6 6 6 7 7 7 8 8 9 9 9 10 10 11 12 12 13 14 15 15 15 16 16 17 17 18 18 18 19 19 19 19 19 19 19 18 18 18 19 21 22 23 23 24 25 25 25 26 26 27 27 28 28 28 27 27 26 26 26 25
4 4 4 4 4 4 5 5 5 6 6 7 7 7 8 8 9 9 10 10 10 11 12 12 13 14 14 14 15 15 15 16 17 18 18 19 19 19 19 19 19 19 19 18 18 18 19 20 22 23 24 24 25 25 26 26 26 26 26 27 27 28 28 27 27 26 25 25 24
4 3 4 4 4 5 5 5 6 6 7 7 7 8 8 9 9 10 10 10 11 12 12 13 14 14 14 14 15 15 15 16 17 18 18 19 20 20 20 19 19 19 19 19 19 20 21 22 23 24 24 25 25 26 26 26 26 26 26 27 27 27 27 27 26 26 25 24 24
3 4 4 4 5 5 5 5 6 6 7 7 8 8 9 9 10 10 10 11 11 12 13 13 14 14 14 14 15 15 16 17 17 18 19 19 20 20 20 20 20 20 20 20 21 22 23 23 24 24 24 25 25 26 26 26 26 26 26 26 26 26 26 26 26 25 25 24 24
4 4 5 5 5 5 5 5 6 6 7 7 8 8 9 10 10 10 11 11 12 12 13 13 13 13 13 14 15 16 17 17 18 18 19 19 19 20 20 21 21 21 21 21 22 23 23 24 24 24 25 25 25 26 26 26 26 26 25 25 25 25 25 25 25 25 25 25 25
4 4 5 5 5 5 5 5 6 6 7 8 8 9 9 10 10 10 11 11 12 12 13 13 13 13 14 15 16 17 17 18 18 19 19 20 20 21 21 21 22 22 22 23 23 23 24 24 24 25 25 25 25 25 25 25 25 25 25 25 24 24 24 24 24 25 25 25 26
4 5 5 6 6 6 6 6 6 6 7 8 8 9 9 10 10 11 11 12 12 12 13 14 14 15 15 16 17 18 18 18 19 19 19 20 21 22 22 22 22 23 23 23 23 23 23 24 24 25 25 26 26 25 24 24 25 25 25 24 24 24 25 25 25 25 25 26 26
4 5 5 6 6 6 6 6 6 7 7 8 9 9 10 10 10 11 11 12 13 13 14 15 15 16 17 17 18 18 19 19 20 20 20 21 22 22 23 23 23 23 23 23 23 23 24 24 25 25 26 26 26 25 24 24 25 25 24 24 24 25 25 25 25 25 25 26 26
4 5 6 6 6 6 6 6 7 7 8 8 9 9 10 10 11 11 12 13 13 14 15 15 16 17 17 18 18 19 19 20 20 21 21 21 22 23 23 23 23 23 23 23 23 23 24 25 25 25 25 26 26 25 24 25 24 24 24 24 24 25 25 25 25 26 26 26 26
5 5 6 6 6 6 6 6 7 7 8 9 9 10 10 11 12 12 13 13 13 14 14 15 16 17 18 18 19 19 20 20 20 21 22 22 23 23 24 24 23 23 23 23 23 24 25 25 25 25 25 25 25 25 24 24 24 23 23 24 24 24 25 25 26 26 26 26 26
5 5 6 6 6 6 7 7 7 8 9 9 10 10 11 11 12 13 13 13 14 14 15 15 16 17 18 18 19 20 20 21 21 22 22 23 23 24 24 24 23 23 23 23 24 25 25 25 25 25 25 25 25 24 24 24 23 23 24 24 24 25 25 25 26 26 26 26 26
5 6 6 6 6 7 7 8 8 9 9 10 10 11 11 12 13 13 14 14 14 15 15 16 16 17 18 19 19 20 21 22 22 23 23 23 24 24 24 24 24 24 24 24 25 25 25 25 24 24 24 24 24 23 23 23 23 24 24 24 24 25 25 25 25 25 25 25 25
5 6 6 7 7 7 8 8 9 9 10 10 11 12 12 13 13 14 14 14 15 15 16 17 17 18 18 19 20 20 21 22 23 23 23 23 24 24 25 25 25 24 25 25 25 24 24 24 24 24 23 23 23 23 23 23 23 23 24 24 24 25 25 25 25 25 25 25 25
5 6 6 7 7 8 8 9 9 10 10 11 12 12 13 13 14 14 14 14 15 16 16 17 18 19 19 20 20 21 21 22 23 23 24 24 24 24 25 25 25 25 25 25 24 24 24 23 23 23 23 23 22 23 23 23 22 22 23 23 24 24 24 24 25 25 25 25 25
5 6 7 7 8 8 9 9 10 10 11 12 12 13 13 14 14 14 14 14 15 16 17 18 18 19 20 21 21 22 22 22 23 23 24 24 24 24 25 26 26 25 24 24 24 24 23 23 22 22 22 22 22 22 22 22 22 22 22 23 24 24 24 24 24 24 25 25 25
6 6 7 8 8 9 9 10 10 11 11 12 13 13 14 14 14 14 14 15 15 16 17 18 19 20 21 21 22 22 23 23 23 23 24 24 24 24 24 25 26 25 25 24 24 23 23 22 22 22 22 22 21 21 21 21 22 22 22 23 23 24 24 24 24 24 25 25 26
6 7 7 8 8 9 10 10 11 11 12 13 13 14 14 14 15 15 15 15 16 17 18 19 20 20 21 21 22 23 23 23 23 23 23 24 24 24 25 25 25 25 25 24 23 23 22 21 21 21 21 21 21 20 20 21 22 22 22 23 23 24 24 24 24 24 25 25 26
6 7 8 8 9 9 10 11 11 12 12 13 13 14 14 15 15 15 16 16 17 17 18 19 20 21 21 22 22 23 23 24 24 24 24 24 24 24 24 24 25 25 24 23 22 22 21 21 21 21 21 21 21 20 20 21 22 23 23 23 24 24 25 25 25 25 25 25 26
Wind_Direction
94 94 94 93 91 88 85 81 77 74 71 64 57 50 46 46 46 44 39 33 27 20 15 11 4 358 353 352 351 350 348 347 346 345 343 342 342 342 342 341 340 338 336 335 334 333 332 331 328 323 318 314 311 310 310 311 311 311 311 311 310 310 309 308 306 305 305 305 304
94 94 93 93 93 92 89 84 79 73 70 67 61 54 49 48 47 44 40 34 27 20 13 7 359 354 351 350 350 348 346 344 343 342 341 340 340 340 340 339 337 336 335 334 333 331 329 328 325 321 315 312 310 309 310 311 311 311 311 311 311 310 309 307 305 305 305 305 304
93 92 92 92 93 93 91 88 82 76 71 67 63 56 52 52 49 45 38 33 26 20 13 3 355 352 351 349 349 347 344 342 341 340 338 338 338 338 338 337 336 335 333 332 330 328 327 325 322 317 312 311 310 309 310 311 312 312 312 311 311 310 308 306 306 306 305 304 304
91 90 89 88 89 89 88 87 83 78 73 68 62 57 53 50 48 44 37 30 25 19 10 359 352 351 351 349 346 344 342 340 339 337 336 336 335 336 336 335 334 333 332 330 328 326 324 323 319 315 311 309 308 308 309 311 312 312 311 310 309 308 306 305 305 305 304 303 303
87 88 88 87 87 88 89 88 84 79 74 69 63 55 48 42 39 36 32 27 23 14 3 355 353 351 349 346 344 342 341 340 339 336 334 333 333 333 333 333 332 331 329 328 326 324 323 322 318 314 310 308 307 307 308 310 312 311 310 309 308 306 304 304 304 304 302 301 300
85 87 90 90 89 89 89 88 85 80 75 69 62 55 48 39 34 30 28 24 18 7 359 356 355 351 347 344 343 342 341 339 338 335 332 331 331 331 331 331 330 329 328 326 325 323 322 321 318 314 310 308 307 307 308 310 311 310 309 308 306 305 303 302 302 302 300 298 298
86 87 88 89 89 88 86 85 83 79 75 72 64 56 47 40 33 28 23 19 11 359 354 355 355 351 347 344 342 340 339 336 334 333 331 329 329 329 328 328 327 327 326 324 323 322 322 320 316 313 310 309 308 308 309 310 309 309 307 306 305 304 302 301 300 299 298 296 296
88 85 83 83 84 85 85 84 82 77 74 70 63 54 44 36 31 25 18 12 2 355 352 352 352 350 347 343 340 339 337 335 332 330 329 327 326 326 326 326 325 324 324 323 322 321 320 318 315 312 310 310 309 308 308 309 308 307 305 304 303 302 300 299 298 297 296 295 295
82 78 75 72 73 76 80 80 80 78 72 68 58 47 38 31 28 22 9 0 355 353 351 348 348 348 346 342 339 337 336 334 331 328 326 325 324 323 323 323 322 322 322 321 320 319 318 316 313 310 309 309 308 307 307 308 307 306 305 304 303 301 300 298 297 296 295 295 294
80 75 72 68 66 68 69 71 73 74 69 62 52 42 32 27 24 13 359 353 354 353 346 340 344 346 345 340 338 336 334 331 329 326 323 322 321 321 321 320 320 319 319 319 319 318 316 313 311 309 308 308 307 307 307 307 306 306 305 303 302 300 299 297 296 296 296 295 294
88 82 78 74 71 67 65 61 62 63 61 50 43 37 29 24 14 3 355 354 350 344 339 337 342 345 342 337 336 334 331 328 325 322 320 319 318 318 318 318 317 317 317 317 317 316 314 312 310 307 307 307 307 307 307 307 307 305 304 302 300 299 298 298 297 297 296 296 295
84 77 73 72 74 72 65 56 50 48 46 35 29 29 27 18 4 358 355 349 342 335 334 336 341 342 338 334 332 330 329 326 323 320 318 316 316 316 316 316 315 315 315 315 315 314 312 310 308 307 307 308 308 308 307 307 307 305 303 302 301 300 299 299 299 298 298 297 297
69 61 58 60 65 65 59 49 42 36 30 22 15 18 20 11 1 356 352 343 337 333 333 337 339 338 334 331 329 327 325 322 320 317 316 314 314 314 314 314 314 314 314 313 313 312 310 308 307 307 307 308 308 307 307 307 306 304 303 302 301 300 300 299 299 299 299 298 297
56 52 50 47 50 50 45 35 29 23 15 9 4 6 11 6 357 349 343 339 336 335 334 334 335 333 331 328 325 322 320 318 317 315 314 313 313 313 313 313 313 313 312 312 311 310 309 308 307 307 307 307 307 307 307 306 305 304 302 302 301 301 300 300 300 300 300 299 299
47 42 40 39 37 32 26 19 12 9 2 358 352 359 6 4 348 340 337 338 337 336 333 332 330 329 328 326 322 319 317 315 314 313 312 312 312 312 312 312 312 312 311 310 309 309 308 307 307 307 307 307 307 307 307 306 304 303 302 301 300 300 300 300 301 301 300 300 300
39 30 30 30 24 18 15 9 3 355 348 343 344 354 2 356 341 334 334 336 337 334 331 329 327 326 325 323 320 318 315 314 313 312 312 311 311 311 311 311 310 310 310 309 309 308 308 307 307 307 307 307 307 307 306 305 304 303 302 301 300 300 300 301 301 301 301 300 300
29 16 18 22 21 17 9 2 355 344 335 334 342 349 350 343 336 333 333 334 333 330 328 327 326 324 322 319 318 316 314 313 312 311 310 310 310 310 310 309 309 309 308 308 308 308 308 307 307 307 307 308 307 307 306 305 304 303 302 301 301 300 300 301 301 301 301 301 300
10 346 337 354 14 11 1 353 345 336 331 332 338 341 342 339 337 334 332 330 329 327 326 325 324 322 319 316 315 313 312 311 309 308 308 307 308 308 307 307 307 307 307 307 307 307 307 307 308 308 309 309 308 307 306 305 304 303 302 302 301 301 301 301 301 301 301 301 300
345 328 317 316 333 349 346 341 335 331 328 330 333 336 337 337 336 333 329 326 324 323 323 322 321 319 316 315 313 311 310 308 307 306 305 305 305 305 305 306 306 306 307 307 306 306 306 307 308 309 310 309 308 307 306 304 304 303 303 302 302 302 302 302 301 301 301 300 300
321 314 307 303 323 340 338 332 329 326 325 328 329 332 334 333 331 328 324 320 320 321 322 320 318 316 314 313 312 311 309 307 306 305 304 304 304 304 304 305 305 306 306 306 306 306 306 308 309 310 310 309 308 307 306 305 304 304 303 303 302 302 302 302 302 301 301 300 299
298 294 296 307 332 340 333 327 326 324 323 323 325 326 327 327 325 322 319 317 319 319 319 317 315 314 313 313 312 311 309 306 304 303 302 302 302 303 303 304 305 305 305 305 305 306 306 308 309 310 310 309 308 307 306 306 305 305 304 304 303 303 303 303 302 301 301 300 299
285 294 307 328 341 341 332 325 324 323 321 320 321 322 322 321 319 316 316 317 318 317 316 315 314 313 313 312 311 310 308 305 303 301 301 301 302 302 303 304 304 305 305 305 305 305 306 307 308 309 309 308 308 307 307 306 306 305 305 304 304 304 304 303 302 302 301 300 299
292 308 327 340 341 334 326 322 321 320 318 318 318 318 318 317 315 315 316 316 317 316 315 314 313 313 312 312 310 309 307 304 301 300 301 301 302 303 303 304 304 304 304 304 304 305 306 307 308 309 309 308 308 308 307 307 307 306 306 305 305 305 304 303 303 302 301 300 299
309 328 340 342 330 321 317 318 318 318 316 315 315 316 316 316 316 316 317 317 316 315 315 314 313 313 312 310 308 306 304 302 301 300 301 301 302 303 304 304 304 304 304 303 303 303 304 306 307 308 309 309 308 308 308 307 307 306 306 306 306 305 304 303 302 301 301 300 300
329 340 339 327 314 311 313 315 315 315 314 314 314 315 315 317 317 317 318 317 317 316 315 314 313 312 311 308 305 303 301 301 301 301 301 302 303 303 304 305 304 304 303 302 301 302 303 304 306 307 308 309 309 308 308 307 307 306 306 306 305 305 304 303 302 302 301 301 302
337 331 315 306 306 308 309 312 313 313 312 313 314 314 316 317 318 319 318 317 317 316 316 315 314 312 309 306 303 301 300 300 301 301 301 302 303 304 304 304 304 303 302 302 302 302 303 304 305 306 307 308 309 309 308 308 307 306 306 305 305 304 303 303 303 303 303 303 304
320 307 300 304 306 306 307 310 312 312 313 313 314 315 316 318 319 319 318 317 316 316 316 315 313 310 307 304 302 301 300 301 301 301 301 302 302 303 304 304 304 303 302 302 302 303 303 304 305 306 308 309 309 309 309 308 307 307 306 305 304 303 303 303 303 304 305 306 307
300 300 303 305 305 307 309 312 313 313 314 315 315 315 316 318 318 317 316 316 316 316 315 314 311 309 306 303 302 301 300 300 301 301 301 302 302 302 303 303 303 302 302 302 302 302 303 304 306 307 309 310 310 310 309 308 307 307 306 305 304 304 303 304 304 306 307 308 308
298 302 305 308 308 309 311 314 314 315 315 315 316 317 317 317 317 316 315 315 315 314 313 312 310 307 304 302 301 300 300 301 302 302 302 302 303 303 303 303 302 302 301 302 302 303 303 305 306 308 310 311 311 311 309 308 307 307 306 305 304 304 304 305 306 307 308 308 308
301 305 307 309 310 312 314 316 316 317 317 317 317 317 316 316 316 316 315 314 313 311 310 309 307 304 302 301 300 301 301 302 303 303 303 303 303 303 303 303 302 302 301 302 302 303 304 306 308 309 311 312 312 311 310 308 307 306 305 304 304 304 305 306 306 307 308 308 308
304 307 309 310 311 313 315 317 318 319 319 318 318 316 316 316 315 315 314 312 310 309 308 307 304 302 301 300 301 302 302 303 304 304 304 303 303 303 303 303 302 302 301 302 303 304 305 307 309 310 311 312 313 312 310 309 307 306 305 304 304 305 306 307 307 308 307 307 307
307 309 310 311 312 315 318 320 321 321 321 319 318 317 316 315 314 313 312 310 309 308 307 305 304 303 302 302 303 303 304 304 304 304 304 304 303 303 303 302 302 302 302 303 304 305 307 308 310 311 312 313 313 312 311 309 308 306 305 305 306 307 307 308 308 307 307 307 306
310 310 310 311 314 317 320 323 324 323 322 320 318 317 316 314 313 312 311 310 308 306 305 304 303 303 303 303 304 304 305 304 304 304 304 304 303 303 302 302 301 302 302 304 305 306 308 309 310 311 312 313 313 312 311 310 309 308 307 307 307 308 308 308 307 307 306 306 306
311 310 311 313 317 321 324 327 326 325 322 320 318 317 316 315 313 312 310 308 307 305 303 302 302 302 302 303 303 304 304 304 305 304 304 304 303 302 302 301 301 301 303 304 306 307 309 310 310 311 312 313 313 313 312 311 310 309 309 308 308 308 308 307 307 306 305 305 305
312 312 314 318 322 326 328 329 327 324 322 320 318 317 316 314 312 310 308 307 305 303 302 301 301 301 302 303 304 304 305 305 305 304 304 304 303 302 301 300 301 302 303 305 307 308 309 309 310 311 312 313 313 313 312 312 311 310 310 309 309 309 308 307 306 306 305 305 305
313 316 319 324 327 329 330 329 326 324 321 319 318 317 315 314 311 309 308 307 305 303 302 303 303 304 305 305 306 306 305 305 304 304 304 303 302 302 301 301 301 303 305 306 307 308 308 309 310 311 312 313 313 313 313 312 312 311 310 310 309 309 308 307 307 306 306 305 305
318 323 325 328 330 330 329 327 325 322 320 318 317 315 314 312 310 308 308 307 305 304 304 305 306 306 307 307 306 305 305 304 303 303 303 302 302 301 301 302 302 304 305 306 307 308 308 309 310 311 312 313 313 313 313 313 312 311 310 310 309 309 308 308 307 307 307 306 306
326 329 330 331 330 329 327 325 322 319 317 315 314 313 311 310 309 308 308 307 306 305 305 306 307 307 307 306 305 304 304 303 302 302 302 302 301 301 301 302 303 304 305 306 307 308 308 309 310 311 313 313 313 313 313 313 312 311 311 310 309 309 308 308 308 308 308 307 307
332 333 333 331 329 326 324 321 319 316 314 313 311 311 310 309 308 307 307 307 305 305 306 306 306 306 306 306 305 304 303 303 302 301 301 301 301 301 301 302 302 303 305 306 307 308 309 310 311 312 313 314 314 314 314 313 312 311 310 310 309 309 309 309 309 309 308 308 308
336 335 333 330 326 323 320 317 315 313 312 310 309 309 308 307 307 307 307 307 307 306 306 306 306 306 306 306 305 304 303 302 302 301 301 301 301 302 302 302 302 303 305 306 307 308 309 310 311 313 314 315 315 315 315 314 313 312 310 310 310 310 310 310 309 309 309 309 309
337 334 330 327 324 320 317 314 312 311 310 309 308 307 307 307 307 307 308 309 308 308 307 306 306 305 305 305 304 303 302 301 302 302 301 302 302 303 303 303 304 304 305 306 307 308 309 311 312 314 315 316 317 317 317 316 313 311 310 310 310 310 310 310 310 310 311 312 312